M7ANY Weather Reports


time (UTC)temp
C
wind
direction
speed
KPH
gust
KPH
rain 1hr
cm
rain 24hr
cm
rain mn
cm
humidity
%
barometer
mb
20260506051004 5 2 6.4 16.1 0.00 0.00 0.00 87 1014.4
20260506050503 5 1 6.4 12.9 0.00 0.00 0.00 87 1014.3
20260506045004 5 360 6.4 17.7 0.00 0.00 0.00 87 1014.3
20260506044504 5 5 6.4 19.3 0.00 0.00 0.00 87 1014.2
20260506044003 5 5 6.4 19.3 0.00 0.00 0.00 86 1014.3
20260506043505 5 1 6.4 14.5 0.00 0.00 0.00 86 1014.3
20260506043217 5 360 6.4 17.7 0.00 0.00 0.00 86 1014.3
20260506042504 5 5 8.0 17.7 0.00 0.00 0.00 86 1014.3
20260506042003 5 4 8.0 17.7 0.00 0.00 0.00 86 1014.3
20260506041716 5 359 8.0 17.7 0.00 0.00 0.00 86 1014.3
20260506041003 5 356 8.0 16.1 0.00 0.00 0.00 87 1014.3
20260506040504 5 2 6.4 16.1 0.00 0.00 0.00 86 1014.3
20260506040004 5 357 4.8 14.5 0.00 0.00 0.00 86 1014.3
20260506035503 5 351 4.8 12.9 0.00 0.00 0.00 86 1014.3
20260506035003 5 353 4.8 12.9 0.00 0.00 0.00 86 1014.3
20260506034503 5 352 4.8 12.9 0.00 0.00 0.00 86 1014.4
20260506034003 5 356 4.8 16.1 0.00 0.00 0.00 86 1014.4
20260506033503 5 358 4.8 16.1 0.00 0.00 0.00 85 1014.4
20260506033005 6 4 4.8 12.9 0.00 0.00 0.00 85 1014.4
20260506032504 6 10 6.4 16.1 0.00 0.00 0.00 85 1014.5
20260506032003 6 6 8.0 17.7 0.00 0.00 0.00 85 1014.5
20260506031503 6 5 8.0 17.7 0.00 0.00 0.00 84 1014.4
20260506031214 6 5 6.4 14.5 0.00 0.00 0.00 84 1014.4
20260506030503 6 4 8.0 17.7 0.00 0.00 0.00 84 1014.5
20260506030004 6 5 8.0 19.3 0.00 0.00 0.00 84 1014.5
20260506025504 6 7 8.0 19.3 0.00 0.00 0.00 83 1014.5
20260506025003 6 8 6.4 16.1 0.00 0.00 0.00 83 1014.4
20260506024504 7 10 8.0 20.9 0.00 0.00 0.00 83 1014.4
20260506024217 7 9 8.0 20.9 0.00 0.00 0.00 83 1014.5
20260506023504 7 9 8.0 17.7 0.00 0.00 0.00 83 1014.5
20260506023004 7 6 9.7 17.7 0.00 0.00 0.00 83 1014.5
20260506022503 7 9 9.7 17.7 0.00 0.00 0.00 83 1014.5
20260506022003 7 12 9.7 17.7 0.00 0.00 0.00 83 1014.5
20260506021503 7 8 8.0 17.7 0.00 0.00 0.00 83 1014.5
20260506021003 7 4 8.0 16.1 0.00 0.00 0.00 83 1014.6
20260506020713 7 2 8.0 16.1 0.00 0.00 0.00 83 1014.6
20260506020004 7 7 8.0 20.9 0.00 0.00 0.00 83 1014.6
20260506015504 7 9 8.0 20.9 0.00 0.00 0.00 83 1014.7
20260506015217 7 11 8.0 20.9 0.00 0.00 0.00 83 1014.6
20260506014715 7 11 8.0 17.7 0.00 0.00 0.00 83 1014.6
20260506014004 7 13 9.7 20.9 0.00 0.00 0.00 83 1014.6
20260506013504 7 9 11.3 20.9 0.00 0.00 0.00 83 1014.6
20260506013004 7 8 11.3 19.3 0.00 0.00 0.00 83 1014.7
20260506012504 7 11 8.0 19.3 0.00 0.00 0.00 83 1014.7
20260506012004 7 9 8.0 19.3 0.00 0.00 0.00 83 1014.8
20260506011504 7 4 9.7 17.7 0.00 0.00 0.00 82 1014.8
20260506011003 7 3 9.7 25.7 0.00 0.00 0.00 82 1014.7
20260506010503 7 5 8.0 25.7 0.00 0.00 0.00 82 1014.7
20260506010003 7 6 9.7 22.5 0.00 0.00 0.00 82 1014.8
20260506005504 7 8 9.7 22.5 0.00 0.00 0.00 82 1014.8
20260506005003 7 13 9.7 17.7 0.00 0.00 0.00 82 1014.8
20260506004504 7 14 9.7 20.9 0.00 0.00 0.00 82 1014.8
20260506004004 7 11 11.3 20.9 0.00 0.00 0.00 82 1014.9
20260506003716 7 9 11.3 22.5 0.00 0.00 0.00 82 1014.8
20260506003003 7 7 9.7 22.5 0.00 0.00 0.00 81 1014.9
20260506002504 7 10 8.0 19.3 0.00 0.00 0.00 82 1014.9
20260506002004 7 10 9.7 19.3 0.00 0.00 0.00 81 1014.9
20260506001504 7 8 9.7 19.3 0.00 0.00 0.00 81 1014.9
20260506001003 7 9 8.0 17.7 0.00 0.00 0.00 81 1014.9
20260506000503 7 12 9.7 19.3 0.00 0.00 0.00 80 1014.9
20260506000003 7 12 9.7 19.3 0.00 0.00 0.00 80 1014.9
20260505235504 7 12 9.7 19.3 0.00 0.00 0.00 80 1015.0
20260505235003 8 13 11.3 20.9 0.00 0.00 0.00 79 1014.9
20260505234504 8 14 11.3 20.9 0.00 0.00 0.00 79 1015.0
20260505234003 8 13 11.3 20.9 0.00 0.00 0.00 79 1015.1
20260505233503 8 14 11.3 19.3 0.00 0.00 0.00 79 1015.0
20260505233004 8 16 11.3 20.9 0.00 0.00 0.00 78 1015.0
20260505232504 8 13 11.3 20.9 0.00 0.00 0.00 78 1015.1
20260505232003 8 13 11.3 20.9 0.00 0.00 0.00 77 1015.1
20260505231503 8 18 11.3 22.5 0.00 0.00 0.00 77 1015.2
20260505231217 8 16 9.7 22.5 0.00 0.00 0.00 77 1015.2
20260505230503 8 10 8.0 17.7 0.00 0.00 0.00 77 1015.2
20260505230218 8 9 8.0 17.7 0.00 0.00 0.00 77 1015.3
20260505225504 8 12 8.0 16.1 0.00 0.00 0.00 76 1015.2
20260505225004 8 19 8.0 20.9 0.00 0.00 0.00 75 1015.2
20260505224503 8 19 11.3 22.5 0.00 0.00 0.00 75 1015.2
20260505224004 8 16 11.3 22.5 0.00 0.00 0.00 75 1015.2
20260505223504 8 13 9.7 20.9 0.00 0.00 0.00 76 1015.1
20260505223004 8 11 8.0 20.9 0.00 0.00 0.00 76 1015.2
20260505222503 8 16 8.0 16.1 0.00 0.00 0.00 76 1015.2
20260505222004 8 23 8.0 17.7 0.00 0.00 0.00 75 1015.2
20260505221504 8 19 9.7 25.7 0.00 0.00 0.00 75 1015.2
20260505221004 8 15 8.0 25.7 0.00 0.00 0.00 75 1015.2
20260505220715 8 13 6.4 19.3 0.00 0.00 0.00 77 1015.3
20260505220003 8 18 6.4 16.1 0.00 0.00 0.00 76 1015.3
20260505215503 8 21 8.0 19.3 0.00 0.00 0.00 76 1015.3
20260505215003 8 21 9.7 20.9 0.00 0.00 0.00 75 1015.4
20260505214503 8 23 8.0 20.9 0.00 0.00 0.00 75 1015.4
20260505214004 9 26 9.7 17.7 0.00 0.00 0.00 75 1015.3
20260505213503 9 23 11.3 19.3 0.00 0.00 0.00 75 1015.3
20260505213004 9 29 11.3 20.9 0.00 0.00 0.00 75 1015.2
20260505212504 9 36 12.9 24.1 0.00 0.00 0.00 75 1015.2
20260505212003 9 35 12.9 27.4 0.00 0.00 0.00 75 1015.2
20260505211504 9 35 11.3 27.4 0.00 0.00 0.00 75 1015.1
20260505211004 9 30 11.3 22.5 0.00 0.00 0.00 76 1015.1
20260505210503 9 29 11.3 22.5 0.00 0.00 0.00 76 1015.2
20260505210004 9 32 11.3 22.5 0.00 0.00 0.00 76 1015.1
20260505205717 10 31 11.3 22.5 0.00 0.00 0.00 76 1015.1
20260505205003 10 29 9.7 24.1 0.00 0.00 0.00 77 1015.1
20260505204503 10 35 11.3 27.4 0.00 0.00 0.00 77 1015.0
20260505204003 10 36 11.3 27.4 0.00 0.00 0.00 77 1015.0
20260505203503 10 33 9.7 24.1 0.00 0.00 0.00 77 1015.0
20260505203217 10 36 11.3 24.1 0.00 0.00 0.00 77 1014.9
20260505202503 10 34 12.9 24.1 0.00 0.00 0.00 76 1014.9
20260505202003 10 32 12.9 20.9 0.00 0.00 0.00 76 1014.9
20260505201504 10 30 11.3 20.9 0.00 0.00 0.00 76 1014.8
20260505201214 10 30 9.7 20.9 0.00 0.00 0.00 76 1014.8
20260505200504 10 37 9.7 20.9 0.00 0.00 0.00 76 1014.7
20260505200003 10 38 9.7 20.9 0.00 0.00 0.00 76 1014.6
20260505195503 10 37 8.0 19.3 0.00 0.00 0.00 75 1014.6
20260505195003 10 38 8.0 17.7 0.00 0.00 0.00 74 1014.5
20260505194503 10 38 9.7 17.7 0.00 0.00 0.00 74 1014.5
20260505194003 10 41 9.7 16.1 0.00 0.00 0.00 74 1014.5
20260505193503 10 36 9.7 17.7 0.00 0.00 0.00 73 1014.5
20260505193218 10 35 9.7 17.7 0.00 0.00 0.00 72 1014.5
20260505192504 10 34 9.7 17.7 0.00 0.00 0.00 73 1014.4
20260505192213 10 34 11.3 20.9 0.00 0.00 0.00 72 1014.3
20260505191503 11 37 9.7 20.9 0.00 0.00 0.00 74 1014.3
20260505191003 11 34 9.7 17.7 0.00 0.00 0.00 77 1014.2
20260505190503 11 42 11.3 24.1 0.00 0.00 0.00 76 1014.2
20260505190215 11 43 12.9 24.1 0.00 0.00 0.00 76 1014.1
20260505185718 11 41 12.9 22.5 0.00 0.00 0.00 77 1014.1
20260505185003 11 34 11.3 20.9 0.00 0.00 0.00 77 1013.9
20260505184503 11 33 11.3 27.4 0.00 0.00 0.00 77 1013.9
20260505184003 11 34 9.7 27.4 0.00 0.00 0.00 77 1013.9
20260505183715 11 34 9.7 25.7 0.00 0.00 0.00 77 1013.8
20260505183003 11 39 11.3 25.7 0.00 0.00 0.00 76 1013.8
20260505182716 11 43 9.7 24.1 0.00 0.00 0.00 76 1013.8
20260505182003 12 43 8.0 17.7 0.00 0.00 0.00 76 1013.8
20260505181503 12 42 8.0 20.9 0.00 0.00 0.00 76 1013.8
20260505181215 12 45 9.7 20.9 0.00 0.00 0.00 76 1013.8
20260505180713 12 49 8.0 20.9 0.00 0.00 0.00 76 1013.7
20260505180003 12 40 11.3 24.1 0.00 0.00 0.00 76 1013.8
20260505175504 12 36 12.9 24.1 0.00 0.00 0.00 75 1013.8
20260505175003 12 36 11.3 24.1 0.00 0.00 0.00 75 1013.8
20260505174504 12 37 11.3 22.5 0.00 0.00 0.00 76 1013.8
20260505174003 12 37 12.9 22.5 0.00 0.00 0.00 75 1013.7
20260505173503 12 35 12.9 25.7 0.00 0.00 0.00 74 1013.7
20260505173003 12 35 14.5 27.4 0.00 0.00 0.00 74 1013.7
20260505172504 12 41 14.5 27.4 0.00 0.00 0.00 74 1013.7
20260505172003 12 41 12.9 25.7 0.00 0.00 0.00 72 1013.7
20260505171503 12 29 12.9 20.9 0.00 0.00 0.00 73 1013.7
20260505171004 12 28 11.3 24.1 0.00 0.00 0.00 74 1013.6
20260505170503 12 36 14.5 25.7 0.00 0.00 0.00 74 1013.7
20260505170216 12 36 14.5 29.0 0.00 0.00 0.00 73 1013.6
20260505165503 13 34 16.1 29.0 0.00 0.00 0.00 72 1013.6
20260505165003 13 32 14.5 29.0 0.00 0.00 0.00 71 1013.6
20260505164503 13 35 16.1 29.0 0.00 0.00 0.00 70 1013.5
20260505164003 14 37 16.1 33.8 0.00 0.00 0.00 69 1013.4
20260505163504 14 32 16.1 33.8 0.00 0.00 0.00 68 1013.3
20260505163004 15 16 11.3 24.1 0.00 0.00 0.00 66 1013.3
20260505162503 15 5 9.7 17.7 0.00 0.00 0.00 59 1013.2
20260505161503 15 16 11.3 24.1 0.00 0.00 0.00 57 1013.1
20260505161003 15 15 11.3 22.5 0.00 0.00 0.00 58 1013.1
20260505160504 15 10 9.7 22.5 0.00 0.00 0.00 57 1013.1
20260505160217 15 8 9.7 22.5 0.00 0.00 0.00 55 1013.1
20260505153004 15 4 8.0 17.7 0.00 0.00 0.00 56 1013.2
20260505152504 15 357 8.0 17.7 0.00 0.00 0.00 56 1013.1
20260505152004 15 358 8.0 17.7 0.00 0.00 0.00 55 1013.2
20260505151503 15 1 8.0 19.3 0.00 0.00 0.00 56 1013.2
20260505151004 16 358 8.0 19.3 0.00 0.00 0.00 54 1013.2
20260505150715 16 1 6.4 17.7 0.00 0.00 0.00 56 1013.2
20260505130214 15 10 6.4 14.5 0.00 0.00 0.00 59 1013.4
20260505125004 15 8 8.0 16.1 0.00 0.00 0.00 60 1013.4
20260505124504 15 16 8.0 16.1 0.00 0.00 0.00 60 1013.4
20260505124004 15 19 8.0 16.1 0.00 0.00 0.00 61 1013.4
20260505123714 15 2 8.0 16.1 0.00 0.00 0.00 60 1013.4
20260505123003 15 2 8.0 16.1 0.00 0.00 0.00 60 1013.4
20260505122503 15 9 8.0 17.7 0.00 0.00 0.00 60 1013.3
20260505122004 15 6 8.0 17.7 0.00 0.00 0.00 59 1013.3
20260505121504 15 12 6.4 14.5 0.00 0.00 0.00 62 1013.3
20260505121004 15 21 6.4 14.5 0.00 0.00 0.00 60 1013.3
20260505120503 15 24 6.4 12.9 0.00 0.00 0.00 60 1013.3
20260505120004 15 354 6.4 14.5 0.00 0.00 0.00 61 1013.3
20260505115504 15 348 6.4 14.5 0.00 0.00 0.00 61 1013.3
20260505115003 15 3 6.4 14.5 0.00 0.00 0.00 59 1013.3
20260505114503 15 16 4.8 14.5 0.00 0.00 0.00 61 1013.4
20260505114216 15 15 4.8 12.9 0.00 0.00 0.00 60 1013.3
20260505113504 15 9 6.4 16.1 0.00 0.00 0.00 61 1013.4
20260505113004 15 6 8.0 17.7 0.00 0.00 0.00 59 1013.5
20260505112503 15 346 6.4 17.7 0.00 0.00 0.00 60 1013.5
20260505112004 15 5 6.4 20.9 0.00 0.00 0.00 59 1013.5
20260505111504 16 14 8.0 20.9 0.00 0.00 0.00 60 1013.5
20260505111003 16 5 6.4 16.1 0.00 0.00 0.00 60 1013.5
20260505110503 16 4 4.8 14.5 0.00 0.00 0.00 61 1013.4
20260505102004 16 4 6.4 17.7 0.00 0.00 0.00 62 1013.7
20260505101503 16 17 8.0 17.7 0.00 0.00 0.00 62 1013.7
20260505101004 15 23 8.0 17.7 0.00 0.00 0.00 61 1013.7
20260505100504 16 1 6.4 17.7 0.00 0.00 0.00 60 1013.8
20260505100003 16 5 8.0 17.7 0.00 0.00 0.00 59 1013.7
20260505095714 16 19 8.0 17.7 0.00 0.00 0.00 59 1013.7
20260505095004 16 32 6.4 14.5 0.00 0.00 0.00 64 1013.7
20260505094503 15 11 6.4 16.1 0.00 0.00 0.00 63 1013.8
20260505094004 15 7 8.0 17.7 0.00 0.00 0.00 63 1013.8
20260505093504 16 16 8.0 17.7 0.00 0.00 0.00 63 1013.8
20260505093214 16 17 8.0 14.5 0.00 0.00 0.00 63 1013.8
20260505092504 16 13 8.0 17.7 0.00 0.00 0.00 62 1013.8
20260505092003 16 9 8.0 17.7 0.00 0.00 0.00 64 1013.8
20260505091503 16 30 8.0 16.1 0.00 0.00 0.00 64 1013.7
20260505091004 16 31 8.0 16.1 0.00 0.00 0.00 64 1013.7
20260505090504 16 3 8.0 16.1 0.00 0.00 0.00 65 1013.8
20260505090005 15 343 8.0 16.1 0.00 0.00 0.00 66 1013.8
20260505085504 15 346 6.4 14.5 0.00 0.00 0.00 67 1013.8
20260505085003 15 1 6.4 14.5 0.00 0.00 0.00 69 1013.8
20260505084503 15 21 8.0 17.7 0.00 0.00 0.00 69 1013.8
20260505084004 15 24 8.0 17.7 0.00 0.00 0.00 70 1013.9
20260505083716 15 16 6.4 12.9 0.00 0.00 0.00 71 1013.9
20260505083004 14 357 4.8 12.9 0.00 0.00 0.00 74 1013.9
20260505082717 14 358 6.4 17.7 0.00 0.00 0.00 74 1014.0
20260505082215 13 13 8.0 17.7 0.00 0.00 0.00 75 1014.0
20260505081504 13 13 6.4 16.1 0.00 0.00 0.00 78 1014.1
20260505081003 12 13 4.8 12.9 0.00 0.00 0.00 80 1014.0
20260505080714 12 16 4.8 12.9 0.00 0.00 0.00 81 1014.1
20260505080004 11 16 6.4 12.9 0.00 0.00 0.00 83 1014.1
20260505075503 11 17 4.8 12.9 0.00 0.00 0.00 84 1014.0
20260505075004 10 11 4.8 12.9 0.00 0.00 0.00 85 1014.0
20260505074503 10 13 6.4 12.9 0.00 0.00 0.00 84 1014.0
20260505074214 10 12 6.4 12.9 0.00 0.00 0.00 85 1014.0
20260505073503 10 5 6.4 12.9 0.00 0.00 0.00 88 1014.0
20260505073003 10 5 6.4 12.9 0.00 0.00 0.00 89 1014.0
20260505072503 9 5 6.4 12.9 0.00 0.00 0.00 92 1014.1
20260505072004 9 4 4.8 11.3 0.00 0.00 0.00 95 1014.1
20260505071714 8 7 4.8 11.3 0.00 0.00 0.00 96 1014.1
20260505071004 8 7 4.8 11.3 0.00 0.00 0.00 96 1014.2
20260505070715 8 7 4.8 11.3 0.00 0.00 0.00 97 1014.1
20260505070218 8 354 4.8 16.1 0.00 0.00 0.00 97 1014.1
20260505065504 8 334 0.0 6.4 0.00 0.00 0.00 97 1014.2
20260505065004 8 0 0.0 0.0 0.00 0.00 0.00 97 1014.2
20260505064503 7 0 0.0 0.0 0.00 0.00 0.00 97 1014.2
20260505064004 7 0 0.0 0.0 0.00 0.00 0.00 97 1014.3
20260505063503 7 0 0.0 0.0 0.00 0.00 0.00 97 1014.2
20260505063004 7 0 0.0 0.0 0.00 0.00 0.00 97 1014.3
20260505062713 7 0 0.0 0.0 0.00 0.00 0.00 96 1014.3
20260505062004 7 232 0.0 3.2 0.00 0.00 0.00 97 1014.3
20260505061503 7 239 1.6 4.8 0.00 0.00 0.00 97 1014.3
20260505061004 6 248 1.6 4.8 0.00 0.00 0.00 97 1014.3
20260505060503 6 258 0.0 6.4 0.00 0.00 0.00 97 1014.4
20260505060004 6 271 1.6 9.7 0.00 0.00 0.00 97 1014.3
20260505055716 6 270 1.6 9.7 0.00 0.00 0.00 97 1014.4
20260505055003 6 271 1.6 6.4 0.00 0.00 0.00 97 1014.2
20260505054503 5 0 0.0 0.0 0.00 0.00 0.00 96 1014.2
20260505054004 5 0 0.0 0.0 0.00 0.00 0.00 96 1014.3
20260505053503 5 192 0.0 3.2 0.00 0.00 0.00 96 1014.3
20260505053003 5 192 0.0 3.2 0.00 0.00 0.00 96 1014.3
20260505052714 4 192 0.0 1.6 0.00 0.00 0.00 96 1014.3
20260505052003 4 0 0.0 0.0 0.00 0.00 0.00 95 1014.3